Location: Fredericksburg
(30.2750°N, 98.8720°W)
Time: 10:28:09
(UTC-05:00)

Daily predictions for brighter satellites

Satellite Brightness Start Highest point End
(mag) Time Altitude Azimuth Time Altitude Azimuth Time Altitude Azimuth
USA 215 3.9 19:31:11 10° ENE 19:37:05 36° SE 19:42:56 10° S
ATLAS 5 CENTAUR R/B 3.5 19:34:21 10° WSW 19:38:40 35° NW 19:43:16 10° NNE
Okean 3 Rocket 3.8 19:36:52 10° N 19:41:25 85° W 19:45:56 10° S
Cosmos 1544 4.0 19:39:49 10° SSE 19:43:01 27° E 19:46:13 10° NNE
SAR-Lupe-4 4.5 19:40:44 10° SE 19:43:48 27° ENE 19:46:52 10° NNE
Resurs 01 Rocket 3.0 19:47:56 10° ESE 19:51:01 19° ENE 19:54:07 10° NNE
ATLAS CENTAUR R/B 4.1 19:50:51 10° WNW 19:53:45 20° WSW 19:56:30 10° SSW
SJ-6B 3.3 19:52:41 10° SE 19:56:23 38° ENE 20:00:10 10° N
Cosmos 1484 Rocket 2.8 19:55:10 10° SSE 19:58:59 88° W 20:02:54 10° NNW
ALOS 4.0 19:58:30 12° E 20:00:11 14° ENE 20:02:27 10° NE
COSMO-SKYMED 1 3.7 19:56:00 10° N 20:00:12 49° WNW 20:04:22 10° SSW
MSX 4.2 19:55:28 10° S 20:01:10 71° WSW 20:06:55 10° NNW
Cosmos 1076 Rocket 3.5 20:01:09 10° N 20:05:31 89° E 20:09:51 10° S
Cosmos 1378 4.3 20:04:29 10° NNW 20:08:04 47° W 20:11:39 10° SSW
Cosmos-2242 3.1 20:06:14 10° S 20:10:35 86° W 20:14:59 10° N
SL-19 R/B 4.3 20:07:23 10° SSE 20:12:59 85° ENE 20:18:55 10° NNW
ASTEX 1 4.2 20:09:35 10° NNE 20:13:43 27° E 20:17:49 10° SSE
Cosmos 1758 3.9 20:09:56 10° SSW 20:13:57 62° W 20:18:01 10° N
Meteor 1-29 3.6 20:10:51 10° NNE 20:14:03 34° E 20:17:14 10° SSE
Nadezhda 4 Rocket 4.2 20:08:56 10° N 20:14:55 47° E 20:20:48 10° SSE
ISS -0.4 20:14:41 10° WNW 20:16:24 13° NW 20:18:07 10° N
SEDSat Delta rocket 4.0 20:10:11 10° W 20:16:39 87° S 20:21:45 19° ESE
Cosmos 1766 Rocket 3.6 20:12:21 10° N 20:16:42 83° W 20:21:00 10° S
SAR-Lupe-1 4.0 20:19:44 10° S 20:23:16 83° WSW 20:26:50 10° NNW
Cosmos 1092 Rocket 4.3 20:20:10 10° N 20:25:56 40° E 20:31:38 10° SSE
GPS 2-04 Rocket1 3.6 20:23:13 10° WNW 20:26:23 33° N 20:28:00 21° NE
Cosmos 1452 Rocket 3.9 20:23:15 10° NNW 20:28:26 65° WSW 20:33:36 10° S
CENTAUR R/B 2.6 20:22:41 10° SW 20:28:31 75° WNW 20:35:03 10° NNE
NOAA 12 4.1 20:24:04 10° SSE 20:29:18 90° W 20:34:37 10° NNW
Cosmos 2251 Rocket 3.9 20:25:35 10° SSE 20:30:23 39° E 20:35:14 10° NNE
Meteor 1-21 Rocket 4.2 20:29:31 10° N 20:35:04 87° W 20:40:36 10° S
Cosmos 1634 Rocket 4.1 20:30:17 10° SSE 20:36:17 52° E 20:42:16 10° NNE
Cosmos 1346 3.6 20:38:19 10° NNW 20:41:14 56° W 20:44:08 10° S
Helios 1A 2.8 20:40:48 17° SSE 20:44:01 69° ENE 20:48:13 10° N
Cosmos 1842 Rocket 3.6 20:39:43 10° S 20:44:02 76° W 20:48:22 10° N
FREGAT/IRIS 3.8 20:41:55 10° S 20:44:52 43° W 20:47:50 10° NNW
Cosmos 1943 Rocket 3.9 20:42:11 10° NNE 20:44:22 16° NE 20:44:22 16° NE
AVUM R/B 4.2 20:43:27 10° SW 20:46:16 42° WNW 20:48:16 16° N
Cosmos 1420 Rocket 4.0 20:41:18 10° NNW 20:46:38 84° WSW 20:51:56 10° SSE
Cosmos 1500 Rocket 3.4 20:43:48 10° N 20:48:15 72° E 20:51:23 19° SSE
OAO 3 Rocket 3.1 20:46:05 10° WNW 20:50:51 78° NNE 20:51:59 51° E
Cosmos 1943 3.8 20:47:54 10° SSW 20:53:25 57° WNW 20:58:57 10° N
Spot 2 Rocket 3.5 20:48:36 10° S 20:53:37 80° WSW 20:58:40 10° NNW
HJ-1C 4.0 20:53:25 21° S 20:55:29 55° W 20:58:46 10° NNW
Cosmos 2369 Rocket 2.3 20:52:08 10° N 20:57:41 54° ENE 20:58:45 47° ESE
Cosmos 1733 3.8 20:54:44 10° SSW 20:58:32 56° W 21:02:19 10° N
BREEZE-M DEB (TANK) 4.5 20:56:14 10° W 20:59:13 30° SW 21:06:55 10° SSE
BREEZE-M DEB (TANK) 4.2 20:44:37 10° NW 21:01:16 68° SW 21:03:53 30° SSE
Cosmos 1674 3.6 21:06:34 10° NNW 21:10:18 47° W 21:11:58 28° SSW
Cosmos 2263 4.5 21:06:24 10° N 21:11:27 49° NE 21:11:27 49° NE
OAO 1 4.4 21:06:49 10° WSW 21:12:21 88° SSE 21:12:57 72° ENE
Resurs 1-3 4.3 21:14:12 26° SSW 21:16:26 52° W 21:20:43 10° NNW
ASTRO E2 4.3 21:13:49 10° W 21:16:48 28° SW 21:16:48 28° SW
USA 215 4.0 21:13:50 10° NNE 21:20:04 49° NW 21:26:17 10° WSW
Delta 168 4.2 21:16:03 10° WSW 21:20:10 41° S 21:20:10 41° S
OAO 1 Rocket 4.5 21:17:45 10° WNW 21:22:53 73° N 21:22:53 73° N
Resurs 01 Rocket 3.5 21:23:23 10° SSW 21:27:14 29° W 21:31:06 10° NW
Cosmos 1627 Rocket 4.4 21:23:52 10° N 21:30:08 89° WSW 21:31:13 64° S
ALOS 3.2 21:37:03 45° WSW 21:37:10 45° W 21:41:38 10° NNW
Meteosat 1 Rocket2 4.3 21:41:55 10° W 21:47:14 50° WSW 21:47:14 50° WSW
Cosmos 2279 Rocket 4.4 21:49:11 10° SSW 21:55:13 57° W 22:01:18 10° N
BREEZE-M DEB (TANK) 4.3 21:48:39 10° SW 22:06:56 71° NW 22:07:36 67° NNW
Cosmos 1943 Rocket 4.4 22:24:19 10° NNW 22:25:55 19° NW 22:25:55 19° NW
